Flag for Romania Weather past 2 weeks in Brăila, Romania

Now
35 °F

Fog.


Feels Like: 35 °F
Forecast: 36 / 49 °F
Wind: 2 mph from South

Location: Galati

Current Time: Dec 19, 2014 at 3:46:09 AM

Latest Report: Dec 19, 2014 at 3:00 AM


Visibility: 0 mi

Pressure: 30.16 "Hg

Humidity: 100%

Dew point: 35 °F

Location of BrăilaLocation

Historic Weather in Brăila — Graph

°F

Brăila temperature yesterday

Maximum temperature yesterday: 38 °F (at 4:00 PM)
Minimum temperature yesterday: 35 °F (at 11:00 PM)
Average temperature yesterday: 37 °F

Past Weeks' High & Low Weather Summary

 TemperatureHumidityPressure
High46 °F (Dec 13, 3:00 PM)100% (Dec 5, 2:00 AM)30.40 "Hg (Dec 5, 2:00 AM)
Low29 °F (Dec 4, 8:00 PM)72% (Dec 13, 3:00 PM)29.86 "Hg (Dec 17, 6:00 PM)
Average33 °F98%30.17 "Hg
* Reported Dec 4 2:00 AM — Dec 19 2:00 AM, Brăila, Weather by CustomWeather, © 2014

Note: Actual official high and low records may vary slightly from our data, if they occured in-between our weather recording intervals... More about our weather records

Advertising

Brăila weather history for previous 24 hours

 ConditionsComfort  
Time TempWeatherWind HumidityBarometerVisibility
2:00 AM
Dec 19
34 °FFog.2 mph100%30.15 "Hg0 mi
1:00 AM34 °FFog.2 mph100%30.16 "Hg0 mi
12:00 AM35 °FFog.2 mph100%30.15 "Hg1 mi
11:00 PM
Dec 18
35 °FFog.2 mph100%30.14 "Hg2 mi
10:00 PM36 °FFog.1 mph99%30.12 "Hg2 mi
9:00 PM37 °FFog.1 mph97%30.11 "Hg2 mi
8:00 PM38 °FFog.1 mph97%30.10 "Hg2 mi
7:00 PM38 °FFog.1 mph97%30.09 "Hg1 mi
6:00 PM38 °FFog.1 mph97%30.06 "Hg1 mi
5:00 PM38 °FFog.1 mph96%30.05 "Hg1 mi
4:00 PM38 °FFog.1 mph96%30.03 "Hg1 mi
3:00 PM38 °FFog.2 mph97%30.02 "Hg1 mi
2:00 PM37 °FFog.2 mph98%30.03 "Hg1 mi
1:00 PM37 °FFog.1 mph100%30.02 "Hg1 mi
12:00 PM36 °FFog.2 mph100%30.02 "Hg1 mi
11:00 AM36 °FFog.2 mph100%30.03 "Hg1 mi
10:00 AM36 °FFog.2 mph100%30.02 "Hg1 mi
9:00 AM36 °FFog.3 mph100%30.00 "Hg1 mi
8:00 AM36 °FFog.3 mph100%29.98 "Hg1 mi
7:00 AM36 °FFog.3 mph100%29.97 "Hg1 mi
6:00 AM36 °FFog.3 mph100%29.95 "Hg1 mi
5:00 AM35 °FFog.5 mph100%29.95 "Hg1 mi
4:00 AM36 °FFog.3 mph100%29.96 "Hg1 mi
3:00 AM36 °FFog.2 mph100%29.97 "Hg1 mi
Weather by CustomWeather, © 2014

See weather overviewHow to use our weather pages